User: anonymous   Login
Location: �couen
(49.0206°N, 2.3831°E)
Time: 14:57:33
(UTC+00:00)
Language:

Cosmos 1844 - Orbit

View from above orbital plane
View from above orbital plane
View from above satellite
View from above satellite

Ground track
Ground track

The orbit data is extracted from the following two-line orbital elements,

1 17973U 87041A   22020.09751788 -.00000131  00000-0 -43099-4 0  9994
2 17973  70.9012 337.0841 0028803 131.5762 228.7836 14.14141935790342
Epoch (UTC): 20 January 2022 02:20:25
Eccentricity: 0.0028803
inclination: 70.9012°
perigee height: 824 km
apogee height: 866 km
right ascension of ascending node: 337.0841°
argument of perigee: 131.5762°
revolutions per day: 14.14141935
mean anomaly at epoch: 228.7836°
orbit number at epoch: 79034

The dashed part of the orbit path shows where the satellite is in the earth's shadow,  

DLR